ECMWFFLT1_250_rhum_000.txt.gz
RH
13 14 15 16 19 20 19 17 16 15 13 13 12 11 9 8 8 8 7 6 5 5 4 4 4 4 4 4 3 3 3 2 2 3 2 2 2 2 2 2 1 2 1 1 2 1 1 2 1 2 2 1 2 2 2 2 2 2 2 2 2 2 3
14 14 15 16 18 20 19 18 17 15 14 13 12 11 9 9 8 8 7 6 6 5 4 4 4 4 4 4 3 3 2 3 3 3 2 2 2 2 2 2 1 1 2 1 2 1 1 2 1 1 2 1 2 2 2 2 2 2 2 2 2 2 3
14 13 14 16 17 19 19 18 16 15 14 13 12 11 10 9 9 8 7 6 6 6 5 4 4 4 5 4 3 3 2 2 3 3 3 2 2 2 1 2 1 1 2 1 1 2 1 1 2 1 2 2 2 2 2 2 2 2 2 2 2 3 2
14 13 14 15 17 18 18 17 16 15 15 14 12 11 10 10 9 8 7 7 6 6 5 5 4 4 5 5 4 3 3 3 3 3 3 2 2 2 1 2 2 1 2 2 1 2 1 1 2 1 2 1 1 2 2 2 2 2 2 2 2 2 2
13 13 14 15 16 17 17 16 16 15 15 14 12 11 10 10 10 8 8 7 6 6 5 5 5 5 5 5 4 3 3 3 3 3 3 2 2 2 2 2 2 1 2 2 1 2 1 1 1 1 1 1 1 2 2 2 2 2 2 2 2 2 2
12 13 14 15 15 15 15 15 14 14 14 13 12 11 10 10 10 8 8 7 6 5 5 5 5 5 5 5 4 4 3 3 3 3 3 2 2 2 2 2 1 1 2 1 1 2 1 1 1 1 1 1 1 2 1 2 2 2 2 2 2 2 2
12 13 14 14 14 14 14 14 13 13 13 13 12 11 10 10 10 9 8 7 6 5 5 5 5 5 6 5 4 4 3 3 3 3 2 2 2 2 2 2 1 1 2 1 2 2 1 1 1 1 2 1 1 1 1 2 2 2 2 2 2 2 2
12 13 14 14 14 14 13 13 13 12 12 12 11 11 10 10 10 9 9 7 5 5 5 4 5 5 6 5 4 4 3 3 3 3 3 2 2 2 2 2 1 1 2 1 1 2 1 2 1 1 1 1 2 1 1 2 2 2 2 2 2 2 2
13 13 14 14 14 13 13 13 12 12 11 11 11 10 10 10 10 9 9 7 5 5 5 5 5 6 7 5 4 4 3 4 4 3 3 2 2 2 2 2 1 1 2 1 1 2 1 2 1 1 1 1 1 2 1 1 2 1 2 2 2 3 2
13 13 13 14 14 13 13 12 11 11 10 10 10 10 10 10 10 10 9 7 6 5 5 5 5 7 7 5 4 4 4 4 4 3 3 2 2 2 2 2 2 1 2 1 1 2 1 2 2 1 1 1 1 2 1 1 2 1 1 2 2 2 3
12 13 13 14 14 13 13 12 11 10 9 9 9 9 10 10 9 9 9 7 5 5 5 5 6 8 8 6 4 4 3 4 4 4 3 2 2 3 2 2 2 1 2 1 1 2 1 1 2 1 1 2 1 2 2 1 2 2 1 2 2 2 2
12 12 12 13 13 13 12 11 10 9 9 8 9 9 9 9 9 9 9 7 5 5 5 5 6 9 9 7 5 4 3 4 4 4 3 2 2 2 2 2 2 1 2 2 1 2 2 1 2 1 1 1 1 1 2 1 1 2 1 1 2 2 2
13 12 13 13 13 12 11 11 10 9 8 8 8 9 9 9 9 9 8 7 5 5 5 5 8 10 9 7 5 4 4 4 4 4 3 2 2 2 2 2 2 2 1 2 1 1 2 1 1 2 1 1 1 1 1 2 1 1 2 1 1 2 2
14 13 13 13 12 12 11 10 9 8 8 8 8 9 8 9 9 9 8 7 6 6 6 6 9 11 10 8 6 5 4 4 4 4 3 2 2 2 2 2 2 2 2 2 2 1 2 2 1 2 1 1 1 1 1 2 1 1 1 1 2 2 2
14 14 14 12 11 11 10 10 9 8 7 7 8 8 8 9 9 9 8 6 6 6 6 7 11 12 10 8 6 5 4 4 4 4 3 3 2 2 2 2 2 2 2 2 2 1 1 2 1 1 1 1 1 1 1 1 1 1 1 1 2 1 2
15 15 14 12 10 10 10 9 9 8 7 7 7 8 8 9 9 8 7 6 6 6 6 8 12 13 10 9 7 5 5 4 4 5 4 3 2 2 2 3 2 2 2 2 2 2 1 2 1 1 1 1 1 1 1 1 1 1 2 1 1 2 1
15 15 14 12 9 9 9 9 8 7 7 7 7 8 8 9 9 8 7 6 6 6 6 9 13 13 11 10 8 6 5 4 5 6 5 3 3 3 2 3 2 2 2 2 2 2 1 1 1 1 1 1 1 1 1 1 1 1 2 1 1 2 1
15 14 13 11 9 8 9 8 7 7 7 7 7 7 8 9 9 8 7 7 6 6 7 10 14 14 12 11 10 7 5 5 5 6 6 4 3 3 3 3 2 2 2 2 2 1 2 2 1 1 1 1 1 1 1 1 1 1 1 2 1 1 2
16 14 13 11 9 8 8 8 7 7 7 7 7 7 8 9 9 8 7 7 7 6 7 10 14 14 13 12 10 7 6 6 6 7 6 4 3 3 3 3 2 2 2 2 2 2 1 2 1 1 2 1 1 1 1 1 1 1 1 1 2 1 1
15 13 12 10 8 7 8 7 7 7 7 8 7 7 8 9 9 8 7 7 7 6 7 11 14 14 13 13 11 8 6 6 7 8 7 5 4 3 3 3 2 2 2 2 2 2 1 2 2 1 1 2 1 1 1 1 1 1 2 1 1 2 2
14 12 11 9 8 7 7 7 7 7 8 8 8 7 9 9 9 8 7 7 7 7 8 12 15 14 13 13 11 7 6 7 7 8 7 6 4 3 3 3 2 2 2 2 2 2 2 1 2 2 1 1 1 1 1 1 1 1 2 2 1 2 2
13 11 10 9 7 7 7 6 6 7 8 8 8 8 9 10 9 8 7 7 7 7 9 13 15 14 14 14 11 7 6 7 7 7 8 7 4 3 3 3 3 2 2 2 2 2 2 2 2 2 2 2 1 1 1 1 1 1 1 2 2 2 2
11 10 9 8 7 7 7 6 6 7 9 9 8 8 10 10 9 8 7 8 7 7 11 15 17 15 15 14 11 7 6 6 6 7 8 7 4 3 3 3 3 3 2 2 2 2 2 2 2 2 2 2 2 2 1 1 1 2 2 2 2 2 2
10 9 8 7 7 7 7 6 6 7 9 9 8 9 10 10 9 8 8 8 7 8 13 18 18 17 17 16 12 8 6 6 6 7 8 7 4 3 3 3 3 3 3 2 2 2 2 2 2 2 2 2 2 2 1 1 1 2 2 2 2 2 3
9 8 7 7 7 7 7 6 6 8 9 9 8 10 10 9 9 8 8 8 8 10 16 20 19 19 20 18 13 8 6 6 6 6 7 6 5 3 3 3 3 3 3 3 2 2 2 2 2 2 2 2 2 2 2 1 2 2 2 2 3 2 2
8 8 7 7 6 6 7 7 7 8 9 9 9 10 10 9 9 8 8 8 8 12 19 23 22 22 23 20 14 9 6 6 6 6 6 6 6 4 3 3 3 3 3 3 2 2 2 2 2 2 2 2 2 2 2 2 1 2 2 2 3 3 3
8 7 7 6 6 6 7 7 7 8 9 9 9 10 10 9 9 8 9 8 9 15 23 25 25 26 26 21 15 8 6 7 7 6 6 6 6 5 3 3 3 3 3 3 3 2 2 2 2 2 2 2 2 2 2 2 2 2 2 3 3 3 3
7 6 6 6 6 6 7 7 7 8 8 9 9 9 9 9 9 9 9 8 10 18 25 27 28 30 29 23 15 9 7 8 8 7 7 7 7 6 4 3 3 3 3 3 3 3 2 2 2 2 2 2 3 3 2 2 2 2 2 3 3 3 3
7 6 6 6 6 7 7 8 7 7 8 9 9 9 9 9 9 9 9 9 13 21 28 30 32 34 32 24 16 10 8 9 9 8 8 7 7 7 5 4 3 3 3 3 3 3 3 2 2 2 2 2 3 3 3 3 2 2 2 3 3 3 3
6 6 6 6 6 7 7 7 7 7 8 9 9 9 9 9 9 10 9 10 16 24 30 32 35 37 34 25 16 10 9 9 9 9 9 8 8 7 6 4 3 3 3 3 3 3 3 3 2 2 2 2 3 3 3 3 3 2 3 3 3 3 3
6 6 6 6 7 7 7 7 7 7 8 9 8 8 9 9 9 10 10 12 19 27 31 33 37 38 34 25 15 10 10 9 8 8 8 9 9 8 7 5 4 3 3 3 3 3 3 3 3 2 2 2 3 3 3 3 3 3 3 3 3 3 3
6 6 6 6 7 7 7 7 6 7 8 9 8 8 9 9 9 10 10 14 22 29 31 33 37 38 34 24 14 10 10 9 9 9 8 9 9 8 7 6 4 3 3 3 3 3 3 3 3 3 3 2 2 3 3 3 3 4 3 3 3 3 4
6 6 6 6 7 7 7 6 7 7 8 8 8 8 9 9 10 10 11 16 25 31 31 34 38 38 33 23 14 10 10 10 9 9 9 9 10 9 8 6 5 3 3 3 3 3 3 3 3 3 3 3 2 3 3 3 3 4 4 3 3 4 4
5 6 6 7 7 6 6 6 7 8 8 7 8 9 9 9 10 11 13 21 29 32 33 37 40 39 32 22 13 11 11 10 10 10 9 9 10 10 9 8 6 4 4 3 3 3 3 3 3 3 3 3 3 3 3 3 4 4 4 4 4 4 4
5 6 6 6 6 6 6 7 7 8 8 7 8 9 9 10 11 12 16 25 32 34 35 39 42 39 31 21 13 11 11 10 10 10 10 10 11 11 11 9 7 6 4 3 3 4 3 3 3 3 3 3 3 3 3 3 3 4 4 4 4 4 4
5 5 6 6 6 6 6 7 7 7 7 8 9 9 9 10 11 13 21 30 34 35 36 40 43 39 29 20 14 13 12 11 11 11 10 11 11 12 11 10 8 6 5 4 3 3 4 4 3 3 3 3 3 3 3 3 3 3 4 4 4 4 4

ECMWFFLT1_250_rhum_003.txt.gz
RH
9 10 9 9 10 10 9 9 9 9 9 9 9 9 9 9 9 9 8 8 8 8 8 7 6 5 5 5 4 4 4 3 3 3 3 3 3 2 3 2 3 2 1 2 2 2 2 1 2 1 1 2 1 1 1 1 2 1 1 2 1 2 2
9 10 9 9 10 9 9 9 9 10 10 10 9 9 8 8 9 8 8 8 8 8 8 7 6 5 5 5 4 4 4 3 3 3 3 3 2 2 3 2 3 2 2 2 2 2 2 1 2 1 1 2 1 1 2 1 2 1 1 2 1 2 2
9 10 10 10 9 9 9 9 10 10 10 10 9 8 8 8 8 8 8 8 8 8 8 7 6 6 5 5 4 4 4 3 3 3 3 3 3 3 3 2 3 2 2 2 2 2 2 1 2 1 1 2 1 1 1 1 2 1 1 2 1 2 2
10 10 10 10 9 9 9 10 11 11 11 10 9 8 8 8 8 8 7 8 8 8 8 7 6 6 5 5 5 4 4 3 3 3 3 3 2 3 3 3 3 2 2 2 2 2 2 1 2 1 1 1 1 1 1 1 2 1 1 2 1 2 2
11 11 10 10 9 9 10 10 11 12 12 11 10 9 8 7 7 7 7 7 8 8 8 7 6 6 6 5 5 4 4 4 3 3 3 3 3 3 3 3 3 2 2 2 2 2 2 2 1 1 1 1 1 1 1 1 1 2 1 2 2 1 2
12 12 11 11 10 10 11 11 11 13 12 10 10 9 7 7 7 7 7 7 8 8 7 7 6 6 6 5 5 4 4 4 3 4 3 3 3 3 3 4 3 2 2 2 2 2 2 2 1 2 1 1 2 1 1 2 1 2 2 1 2 1 1
13 13 12 12 11 11 11 12 12 13 12 10 10 9 7 7 6 7 7 7 8 8 7 7 6 6 6 5 5 4 4 4 4 4 4 3 3 3 3 4 3 2 2 2 2 2 2 2 1 2 2 1 2 1 1 2 1 1 2 1 2 2 1
13 13 13 12 12 12 12 12 12 13 13 11 10 8 7 6 6 7 7 7 8 8 7 7 6 6 6 5 4 4 4 4 4 4 4 3 3 3 3 4 3 2 2 2 2 2 1 2 1 1 2 1 2 2 1 2 1 1 2 1 2 2 1
13 13 13 13 13 13 13 13 13 13 13 11 10 9 7 6 6 7 7 8 8 7 7 7 6 6 6 5 4 4 4 4 4 4 5 4 3 3 3 4 3 2 2 1 2 2 1 2 2 1 2 1 1 2 1 1 1 1 2 1 2 2 1
13 13 12 13 14 13 13 13 13 13 13 11 10 9 7 6 6 7 7 8 8 7 6 6 6 7 6 5 4 4 3 4 4 4 5 4 4 4 4 4 3 2 2 1 2 2 1 2 2 1 1 1 1 1 1 1 1 1 1 1 1 2 2
13 12 12 13 14 13 13 14 13 13 13 12 10 9 7 7 6 7 8 8 7 6 6 6 6 6 6 5 4 4 3 4 4 4 5 4 3 4 5 5 4 2 2 2 2 2 2 1 2 1 1 1 1 1 1 1 1 1 1 2 1 2 2
13 12 11 11 13 13 13 14 13 13 14 12 10 9 7 6 6 7 8 8 7 7 6 6 6 6 6 5 4 4 4 4 4 4 5 4 3 4 4 4 4 2 2 2 2 2 2 1 2 1 1 1 1 1 1 1 1 1 1 1 1 1 2
13 13 12 11 12 12 13 14 13 13 13 11 9 9 7 6 7 7 8 8 7 7 6 7 7 6 6 5 5 5 4 4 4 4 4 4 3 4 5 4 3 2 2 2 2 2 2 1 2 1 1 1 1 1 1 1 1 1 1 1 1 1 2
12 12 12 12 12 13 13 13 12 12 11 9 8 8 7 6 7 7 8 8 7 7 7 7 7 6 6 5 5 5 5 5 4 4 4 4 3 4 4 4 3 2 2 2 2 2 2 1 2 1 1 1 1 1 1 1 1 1 1 1 1 1 1
12 12 12 12 13 13 13 13 11 11 10 9 8 8 6 6 7 8 8 8 7 7 7 7 7 6 6 6 5 6 6 5 5 4 4 3 3 4 4 4 3 2 2 2 2 2 2 2 2 1 1 1 1 1 1 1 1 1 1 1 1 1 2
12 12 13 13 13 14 13 13 11 11 10 8 8 8 6 6 7 8 8 8 7 7 8 8 7 6 6 6 6 7 7 6 5 5 4 3 4 4 4 4 3 2 2 2 2 2 2 2 2 1 1 1 1 1 1 1 1 1 1 1 1 1 1
12 12 14 14 14 14 13 12 11 10 9 8 7 7 7 6 7 8 8 8 7 8 8 8 7 7 6 6 6 8 8 7 6 5 4 4 4 5 5 4 3 2 2 2 2 2 2 2 2 1 1 1 1 1 1 1 1 1 1 1 1 1 1
11 12 13 14 14 14 13 12 10 9 9 8 7 7 7 7 8 8 8 7 7 8 8 8 7 7 7 6 7 9 10 8 6 5 4 4 4 5 6 4 3 2 2 2 2 2 2 2 2 2 1 1 1 1 1 1 1 1 1 1 1 1 1
11 12 12 13 13 13 12 11 9 8 8 8 7 7 7 7 8 8 7 7 8 8 8 8 8 7 7 7 9 11 11 9 7 6 5 4 5 5 6 5 4 2 2 2 2 2 2 2 2 2 1 1 1 1 1 1 1 1 2 1 1 1 1
11 12 12 12 13 12 11 10 8 8 8 8 7 7 7 7 8 7 7 7 8 8 8 8 8 8 7 8 10 12 11 9 7 6 5 5 6 6 6 6 4 3 2 2 2 2 2 2 2 2 1 1 2 1 1 1 1 1 1 1 1 1 1
11 12 12 12 12 11 10 9 7 8 8 7 7 7 7 7 8 7 7 7 7 8 8 8 8 8 7 9 12 13 11 8 7 6 5 6 6 6 6 6 5 3 2 2 2 2 2 2 2 2 2 1 1 1 1 1 1 1 1 1 1 1 1
11 12 12 12 12 10 9 8 7 7 8 7 7 7 7 7 7 7 7 7 8 8 8 8 8 7 7 10 13 13 11 8 7 6 5 6 7 6 6 6 5 3 2 2 3 2 2 2 2 2 2 1 1 1 1 1 1 1 1 1 1 1 1
11 12 12 12 11 10 8 8 7 7 7 7 7 8 7 7 7 7 7 7 8 8 8 8 8 7 8 11 14 13 10 8 7 6 6 6 7 7 6 6 5 4 3 2 3 3 2 2 2 2 2 1 1 2 1 1 1 1 1 1 1 1 1
11 12 12 11 11 9 8 7 7 7 6 7 7 8 7 7 7 7 7 8 8 8 8 8 8 7 9 13 15 13 10 9 8 7 6 6 7 7 6 6 5 4 3 3 3 3 2 2 2 2 2 2 2 2 2 1 1 1 1 1 2 1 1
11 11 11 10 9 8 7 6 6 6 6 7 8 8 7 7 7 7 7 8 8 8 8 8 8 8 11 15 16 13 10 9 8 7 7 7 7 6 6 6 5 4 3 3 3 3 2 2 2 2 2 2 2 1 2 2 1 2 2 1 2 2 1
10 10 9 9 8 6 6 6 6 6 6 7 7 8 7 7 7 7 7 8 8 8 8 8 8 9 13 17 16 13 11 10 9 8 8 7 6 6 5 6 6 5 4 3 3 3 3 2 2 2 2 2 2 2 2 2 1 2 2 1 1 2 1
8 8 7 7 6 5 5 6 6 6 6 7 7 7 7 6 7 7 8 8 8 8 8 8 8 10 15 18 16 13 12 11 10 9 9 8 6 6 5 6 6 5 4 3 3 3 3 2 2 2 2 2 2 2 2 2 2 2 2 2 1 1 1
7 6 6 6 5 5 5 6 6 6 6 7 7 7 7 6 7 7 8 8 8 8 8 8 8 12 17 19 16 14 13 12 11 10 10 8 7 6 6 6 7 6 5 4 3 3 3 3 2 2 2 2 2 2 2 2 2 2 2 2 2 1 1
5 5 5 5 5 5 6 5 5 6 6 7 7 7 6 7 7 7 8 8 8 8 9 8 9 15 20 20 18 17 15 13 12 11 10 9 7 7 6 6 7 8 6 4 3 3 3 3 2 2 2 2 2 2 2 2 2 2 2 2 2 2 1
4 4 4 5 5 5 6 5 5 6 6 7 7 6 6 7 7 8 8 8 8 9 9 8 11 18 22 22 20 19 17 15 14 13 12 10 8 7 7 6 6 8 7 6 4 3 3 3 3 2 2 2 2 2 2 2 2 2 2 2 2 2 2
4 4 4 5 5 5 5 5 6 6 6 6 6 6 6 7 7 8 8 8 8 9 8 9 15 21 24 23 23 22 19 17 16 15 13 10 8 7 7 7 7 7 7 6 4 3 3 3 3 3 2 2 2 2 2 2 3 2 2 2 2 2 2
4 5 5 5 5 5 5 5 6 6 6 6 6 6 6 7 7 8 8 8 9 9 9 12 19 24 26 26 26 25 21 19 17 16 13 10 8 7 7 7 7 7 7 6 5 3 3 3 3 3 3 2 2 2 2 2 3 3 3 3 2 2 2
4 5 5 5 5 5 5 5 6 5 5 6 6 6 6 7 7 8 8 8 9 9 10 16 23 27 28 29 30 28 24 20 18 16 13 10 8 7 7 7 7 7 7 7 6 4 3 3 3 3 3 3 2 2 2 2 2 3 3 3 3 2 2
4 4 4 5 5 5 5 5 5 5 5 6 6 6 6 7 7 8 8 9 9 10 14 22 28 30 31 33 33 29 25 21 19 16 13 10 8 8 8 7 7 8 7 7 6 5 4 3 3 3 3 3 3 2 2 2 2 3 3 3 3 3 3
4 4 4 5 5 5 5 5 5 5 6 6 6 6 6 7 7 8 9 9 9 12 19 27 31 32 34 36 35 30 25 22 20 17 13 9 8 8 8 8 8 8 8 8 7 6 5 3 3 3 3 3 3 3 2 2 2 2 3 3 3 3 3
4 4 5 5 5 5 5 5 5 5 5 6 6 6 7 7 8 8 9 9 11 17 25 30 32 34 37 38 35 30 25 22 20 17 12 9 8 8 8 9 9 9 9 8 8 7 5 4 3 3 3 3 3 3 3 3 3 2 2 3 3 3 3

ECMWFFLT1_250_rhum_006.txt.gz
RH
15 12 10 9 8 8 7 7 6 7 7 7 7 8 8 9 10 10 9 9 8 7 7 6 6 6 6 6 6 6 5 5 5 4 4 4 4 4 3 3 3 4 5 4 2 2 2 2 2 2 2 2 1 1 2 2 1 1 1 1 2 2 1
15 14 11 9 9 8 7 7 7 7 7 7 7 8 9 10 11 10 9 9 8 7 7 6 6 6 6 6 6 5 5 5 5 5 4 4 4 4 3 3 3 4 5 5 3 2 2 2 2 2 2 2 1 1 1 2 1 1 2 1 2 2 1
14 15 13 11 9 8 8 8 8 7 7 7 8 8 9 10 10 10 10 9 8 7 7 6 6 7 7 6 6 5 5 5 5 5 5 4 4 4 3 3 3 4 5 5 4 2 2 2 2 2 2 1 1 2 1 2 1 1 1 1 2 2 2
13 14 14 13 11 9 9 9 8 7 7 7 8 9 10 10 10 10 10 9 8 7 7 7 6 7 7 6 6 5 4 5 5 5 5 5 5 4 3 3 3 4 5 5 4 3 2 2 2 2 2 2 1 1 1 2 1 1 2 1 2 2 2
13 13 14 13 12 10 10 9 8 8 8 8 8 9 10 10 10 10 10 9 8 8 7 7 7 7 7 7 6 5 4 5 5 5 5 5 4 4 3 3 3 4 5 4 4 3 2 2 2 2 2 2 1 1 2 2 1 2 1 1 2 2 2
12 12 13 13 12 11 11 10 9 9 9 8 9 10 11 10 9 10 9 8 8 8 7 7 7 7 7 7 6 5 5 5 5 5 5 5 4 4 3 3 3 4 4 4 4 3 3 2 2 3 2 2 2 1 2 2 1 2 1 1 2 1 2
11 11 12 12 12 11 11 10 10 10 10 9 10 11 11 10 10 10 9 8 8 8 8 8 8 8 7 7 6 5 5 5 5 5 5 5 4 4 4 3 4 4 4 4 4 3 3 3 2 2 2 2 2 2 2 2 2 1 1 2 1 1 2
9 10 10 11 11 11 10 10 11 11 10 10 10 11 12 11 10 10 9 8 8 8 8 8 9 9 8 7 6 5 5 5 5 6 5 5 4 4 4 4 4 4 4 3 4 3 3 3 2 2 2 2 2 2 2 2 2 2 1 1 1 1 2
8 9 9 9 10 10 10 10 11 11 10 10 11 12 12 11 11 11 10 8 8 8 8 9 9 9 8 7 6 5 5 5 5 6 5 4 4 4 4 4 4 4 3 3 3 3 3 2 2 2 2 2 2 2 2 2 1 2 1 1 2 1 1
8 8 8 9 9 9 10 10 10 10 10 11 12 12 13 12 11 11 10 8 8 8 9 9 9 9 8 6 6 5 5 5 5 6 5 4 4 4 5 6 5 4 3 3 3 3 3 3 2 2 2 2 2 2 2 2 1 2 2 1 1 1 1
7 7 7 8 8 8 10 9 9 10 10 11 12 13 13 12 11 11 9 8 8 8 9 9 9 9 7 6 6 5 5 5 5 6 5 4 4 4 5 7 6 5 4 3 3 3 3 3 2 2 2 2 2 2 2 2 2 2 2 1 1 1 1
6 7 7 7 7 8 9 9 9 9 9 10 12 12 13 12 12 11 9 8 9 9 9 10 10 9 7 6 5 5 5 5 5 5 5 4 4 4 6 6 6 6 5 4 4 3 3 3 2 2 2 2 2 2 2 2 2 2 1 1 1 1 1
6 6 6 7 7 8 9 9 9 9 9 10 12 12 12 12 11 10 8 8 9 10 10 10 10 8 7 6 5 5 6 5 5 5 4 4 4 5 6 6 5 5 5 4 5 4 3 3 2 2 2 2 2 2 2 2 1 2 2 1 1 1 1
5 6 6 7 7 7 8 9 9 9 9 10 11 12 12 12 10 8 8 9 10 10 10 10 9 7 6 6 6 6 6 6 5 5 4 4 4 5 6 6 6 5 5 4 4 5 4 3 3 2 2 2 2 2 2 2 1 2 2 1 1 1 1
5 5 6 6 7 7 8 8 8 9 10 11 11 12 12 12 9 8 8 9 10 10 10 9 8 7 6 6 6 6 6 6 5 4 4 4 4 5 6 6 6 5 4 4 4 4 5 3 3 2 2 2 2 2 2 2 1 2 2 1 2 1 1
4 5 5 6 6 7 8 8 8 9 10 11 11 12 12 11 9 8 8 9 10 10 10 9 8 7 6 6 6 6 7 6 5 4 4 4 4 5 5 5 6 5 4 4 4 4 4 3 2 2 2 2 2 2 2 2 1 2 2 1 2 1 1
4 4 5 5 6 7 8 8 8 8 10 11 11 12 11 10 9 8 8 9 10 10 9 8 7 6 6 6 6 7 7 6 5 4 4 4 5 5 5 5 5 5 4 5 5 4 4 3 2 2 2 2 2 2 2 2 1 2 2 1 2 1 1
4 4 5 5 6 7 7 8 8 8 9 10 11 11 10 9 8 8 9 10 10 10 9 8 7 6 6 6 6 7 7 6 5 4 4 5 5 5 6 6 5 5 4 5 5 5 4 3 2 2 2 2 2 2 2 2 1 1 2 1 1 2 1
3 4 4 5 6 6 7 7 8 8 10 10 11 11 10 8 8 8 9 10 10 10 9 7 6 6 6 6 6 7 7 5 5 5 5 6 6 6 6 6 5 4 4 4 5 5 5 4 3 2 2 2 2 2 2 2 2 1 2 1 1 2 1
3 4 4 5 6 6 6 7 7 8 9 10 10 10 9 8 8 8 9 10 10 9 9 7 6 6 6 6 7 7 6 5 5 5 6 7 7 7 7 6 5 5 4 4 5 5 5 5 3 2 2 2 2 2 2 2 2 1 2 1 2 2 1
3 3 4 4 6 6 6 7 7 8 9 9 9 9 8 7 8 8 9 10 9 9 8 7 6 6 6 7 7 6 6 5 5 6 7 8 8 8 8 7 5 5 5 5 5 5 5 5 3 2 3 2 2 2 2 2 2 1 2 1 1 2 1
3 3 4 4 5 6 6 7 7 7 8 9 8 8 7 7 8 8 9 9 9 9 8 6 6 6 6 7 7 6 6 5 5 7 8 9 9 9 9 7 5 6 5 5 6 6 5 4 3 2 2 2 2 2 2 2 2 1 2 1 1 2 1
3 3 4 4 5 5 6 6 7 7 7 8 7 7 7 7 8 8 9 9 9 8 7 6 6 6 6 7 6 6 6 5 6 8 9 9 10 9 8 7 6 6 6 6 7 7 5 4 2 3 3 2 2 2 2 2 2 1 2 1 1 2 1
2 3 4 4 5 5 5 6 6 6 6 6 6 6 6 7 7 8 9 9 9 7 6 6 6 6 6 7 6 6 6 6 7 9 10 10 10 10 8 6 6 6 7 7 8 7 5 4 2 3 3 2 2 2 2 2 2 1 2 2 1 2 1
2 3 3 4 4 4 5 5 5 5 6 6 6 6 6 7 8 8 9 9 8 7 6 6 6 6 7 7 6 6 6 7 9 11 11 10 10 9 8 6 6 7 7 7 8 6 5 4 2 3 3 2 2 2 2 2 2 1 2 2 1 2 2
3 3 3 3 4 4 4 5 5 5 5 5 6 6 6 7 8 9 9 9 7 6 6 6 6 6 7 6 6 7 7 8 11 12 11 10 10 9 8 6 6 7 7 8 8 7 5 4 3 2 3 2 3 3 2 2 2 1 2 2 1 2 2
3 3 3 3 4 4 4 4 4 4 5 6 6 6 7 8 9 9 9 7 7 6 6 6 6 6 7 7 7 7 8 10 13 13 11 11 10 9 7 7 6 7 7 7 8 7 5 4 3 2 3 2 2 3 2 2 2 2 2 2 2 2 2
3 3 3 3 3 3 4 4 4 4 5 6 6 7 8 9 9 9 8 6 6 6 6 6 6 6 7 7 7 7 10 13 14 13 12 11 11 9 7 6 6 6 7 7 7 6 5 4 3 2 3 3 2 3 2 2 2 2 2 2 2 2 2
3 3 3 3 3 3 4 4 4 5 6 7 7 8 8 9 8 8 7 6 6 6 6 6 6 7 7 7 7 9 13 15 15 14 13 12 11 9 7 6 6 7 7 7 8 8 6 5 4 3 2 3 3 3 3 2 2 2 2 2 2 2 2
3 3 3 3 3 4 4 4 5 6 7 7 8 8 8 8 8 7 7 6 6 6 6 6 6 7 7 7 9 12 16 17 15 14 13 12 11 8 7 7 7 7 8 8 8 8 8 6 5 3 2 3 3 2 3 2 2 2 2 2 2 2 2
3 3 3 3 4 4 4 5 6 7 8 8 8 8 8 7 7 7 6 6 6 6 6 6 7 8 7 8 12 16 18 17 16 15 14 12 10 9 7 7 8 7 8 8 8 8 8 7 5 4 3 3 3 3 3 3 2 2 2 2 2 2 2
3 4 3 4 5 5 5 6 7 7 8 8 8 8 7 6 7 7 6 6 6 6 6 7 7 8 8 11 16 18 19 18 17 15 14 12 10 9 7 8 8 8 8 8 8 9 9 7 6 4 3 3 3 3 3 3 2 2 2 2 3 2 2
3 4 4 5 6 6 6 7 7 8 8 7 7 7 6 6 7 6 6 6 6 6 7 7 8 8 11 16 19 20 19 19 18 16 14 12 10 9 8 8 9 9 9 9 8 9 9 8 6 5 3 3 3 3 3 3 2 2 3 2 3 3 2
4 5 5 6 7 7 7 7 7 7 7 6 6 6 6 6 6 6 6 6 6 7 8 8 8 11 16 19 21 21 21 21 19 16 14 12 10 9 8 8 9 9 9 9 8 9 9 9 8 6 4 3 3 3 3 3 3 3 3 2 3 3 2
5 5 6 6 7 7 7 7 6 6 6 6 6 6 6 6 6 6 6 6 6 7 8 8 11 16 20 22 23 23 23 21 19 16 14 12 10 9 9 9 9 9 9 9 9 9 9 9 8 7 5 3 3 3 3 3 3 3 3 2 3 3 3
5 6 6 6 6 6 6 6 5 5 6 6 6 6 6 6 6 6 6 7 7 8 8 11 16 21 24 25 26 26 24 22 19 16 14 11 10 10 9 9 9 9 9 9 9 10 10 10 9 7 5 4 3 3 3 3 3 3 3 2 2 3 3

ECMWFFLT1_250_rhum_009.txt.gz
RH
7 8 8 10 10 10 10 9 9 8 6 6 6 6 7 7 8 9 8 8 8 9 10 10 10 10 9 10 10 10 8 7 7 7 7 8 8 8 7 6 5 5 6 6 5 4 3 3 3 3 2 2 2 1 2 1 1 1 1 1 1 1 1
6 6 7 8 8 8 8 8 8 8 7 6 6 5 6 7 7 8 8 8 8 8 9 9 10 10 10 11 11 10 8 7 7 7 7 8 9 8 7 6 5 5 5 5 5 4 4 3 3 3 2 2 2 2 1 1 2 1 1 1 1 1 2
5 5 5 6 6 7 7 7 7 8 7 7 6 5 6 7 7 7 7 7 7 8 8 9 10 11 11 11 12 10 8 7 7 7 8 9 9 8 7 5 5 5 5 5 5 5 4 4 3 2 2 2 2 2 2 1 2 1 1 1 1 2 1
3 4 4 4 5 5 6 7 7 7 7 7 6 5 5 6 6 6 7 6 7 7 8 9 10 11 12 13 13 11 8 7 7 8 9 9 9 8 6 5 5 5 4 4 5 5 4 4 3 2 2 2 2 2 2 2 2 1 1 1 1 1 1
3 3 3 3 4 4 5 6 6 6 6 6 6 6 5 6 6 6 6 6 7 7 7 9 10 11 13 14 13 11 8 7 8 9 10 9 9 7 6 5 5 4 4 4 5 5 5 4 3 3 2 2 2 2 2 2 2 1 1 1 1 1 1
3 3 3 3 3 4 4 5 5 6 6 6 6 6 5 5 6 6 6 6 7 7 7 8 10 12 14 15 14 10 8 8 9 10 10 10 9 7 6 6 5 4 4 4 5 4 4 4 3 3 3 2 2 2 2 2 2 1 2 1 1 1 1
2 2 3 3 3 3 4 4 5 5 5 5 5 5 5 5 6 6 6 6 6 6 6 7 10 12 14 16 14 10 8 9 10 11 11 10 9 7 6 6 5 5 4 4 5 4 4 4 3 3 3 3 2 2 2 2 2 2 1 1 1 1 1
2 2 2 3 3 3 3 4 4 4 4 5 5 5 5 5 5 6 6 6 6 6 6 7 10 13 16 16 14 10 9 10 11 11 11 10 8 6 6 6 5 5 4 4 5 4 3 4 4 3 3 3 2 2 2 2 2 2 1 1 1 1 1
2 2 2 2 2 3 3 4 4 4 4 4 4 5 5 5 5 6 6 7 6 6 6 7 10 14 16 15 12 10 10 11 12 12 11 9 7 6 6 6 5 5 5 5 4 4 3 3 4 3 3 3 2 2 2 2 2 2 1 1 1 1 1
2 2 2 2 2 2 3 3 4 4 3 4 4 5 5 5 5 5 6 7 6 6 6 7 12 15 15 13 11 10 11 12 12 12 11 9 7 6 6 5 5 5 5 5 4 3 3 3 4 3 2 3 2 2 2 2 2 2 1 1 1 1 1
2 2 2 2 2 2 2 3 3 3 3 4 4 4 4 4 5 5 6 6 6 6 6 9 14 15 13 11 11 11 11 12 12 11 10 8 6 6 6 5 5 6 5 5 4 3 3 3 4 3 2 3 2 2 2 2 2 2 1 1 1 1 1
2 2 2 2 2 2 2 3 3 3 3 3 3 4 4 4 4 5 6 6 6 6 7 11 15 13 11 11 11 11 12 12 12 11 9 7 6 6 6 5 6 7 6 5 5 4 4 4 4 3 2 3 3 2 2 2 2 2 1 1 1 1 1
2 2 2 2 2 2 2 2 3 3 3 3 3 4 4 4 4 5 6 6 5 6 9 12 13 11 10 11 11 12 13 12 11 10 8 7 6 6 5 5 6 6 6 5 5 6 5 4 4 4 3 3 3 2 2 2 2 2 1 1 1 1 1
2 2 2 2 2 2 2 2 2 2 2 2 3 3 3 4 4 5 5 5 5 8 10 11 10 10 10 11 11 12 13 12 11 9 7 6 6 6 5 5 6 6 5 5 6 6 6 5 4 4 3 3 3 3 3 2 2 2 1 1 1 1 1
2 1 2 2 2 2 2 2 2 2 2 2 3 3 3 4 4 5 5 5 7 9 10 10 10 11 10 10 11 12 12 12 11 8 6 6 6 5 5 5 6 6 5 5 6 6 6 5 4 4 3 3 3 3 3 2 2 2 1 1 1 1 1
2 2 2 1 2 2 2 2 2 2 2 3 3 3 4 4 4 5 4 6 7 8 9 10 10 10 10 10 11 11 12 12 10 7 7 7 6 5 5 5 6 6 5 6 6 6 6 5 4 3 3 3 3 3 3 2 2 2 1 1 1 1 1
1 1 2 2 2 2 2 1 2 2 2 3 3 3 4 4 4 5 4 6 7 8 9 10 10 9 9 10 11 12 13 11 9 7 7 6 5 5 5 5 6 5 5 6 7 7 6 5 4 4 3 3 3 3 2 2 2 1 1 2 1 1 1
2 1 1 2 1 1 2 1 2 2 2 2 3 3 4 4 4 5 5 5 7 8 9 10 9 8 9 10 11 13 12 10 8 7 7 6 5 5 5 5 5 5 5 6 6 6 5 5 4 4 4 3 3 3 2 2 2 1 1 2 1 1 1
2 2 1 2 1 1 2 2 2 3 2 2 3 3 4 4 4 5 5 5 7 8 9 9 8 8 9 10 12 12 10 8 7 8 7 6 6 5 5 5 5 5 5 5 6 6 5 4 4 4 4 4 3 3 2 1 2 2 1 2 1 1 1
2 2 1 2 2 1 2 2 2 3 3 3 3 4 4 4 4 5 5 5 7 8 8 8 8 8 10 11 12 11 9 7 8 8 7 6 6 6 5 5 5 5 6 5 5 5 4 4 4 4 4 4 3 3 2 1 2 2 1 2 1 1 1
1 2 2 1 2 2 2 2 3 3 3 3 3 4 4 4 4 5 5 6 7 8 8 8 8 9 11 12 11 9 7 7 8 8 7 6 6 6 6 5 5 5 6 6 6 5 4 4 4 4 4 4 3 3 2 2 2 2 1 2 1 1 1
1 1 2 2 2 2 2 2 3 3 3 3 3 3 4 4 4 5 5 6 7 8 8 8 8 10 12 12 10 8 7 8 8 7 7 6 6 6 5 5 6 6 7 7 6 6 5 4 4 4 4 4 4 3 2 2 2 2 1 2 1 1 2
2 1 2 2 2 2 2 2 3 3 3 3 3 3 4 4 4 5 5 7 7 7 8 8 9 11 12 11 9 8 7 8 7 7 7 6 6 6 5 6 7 8 8 8 7 6 5 4 4 3 3 4 4 3 2 2 2 2 1 2 2 1 1
2 2 2 2 2 2 2 2 3 3 3 3 3 4 4 4 4 5 6 6 7 7 8 9 11 12 11 9 8 7 8 8 7 7 7 7 6 6 6 7 9 9 9 9 7 6 5 4 4 3 3 4 4 3 3 2 2 2 2 2 2 1 1
2 2 2 2 2 2 2 3 3 3 3 3 3 4 4 4 5 5 5 6 7 7 9 10 12 12 10 8 8 8 8 7 7 7 7 7 6 6 7 9 10 10 10 9 6 6 5 4 4 4 4 4 4 3 3 2 2 2 2 2 2 1 2
2 2 2 2 2 3 3 3 3 3 3 3 4 4 4 4 5 5 6 7 8 9 10 11 12 10 9 8 8 8 8 7 7 7 7 7 6 7 9 11 12 11 10 8 6 5 5 4 5 4 4 4 4 4 3 2 2 2 1 2 2 1 2
2 2 2 2 3 3 3 3 3 3 3 4 4 4 4 5 5 5 7 8 9 11 11 11 11 9 8 8 8 7 7 7 7 7 7 6 7 8 11 12 12 11 10 7 6 6 5 5 5 5 5 5 4 3 3 2 2 2 2 2 2 1 2
2 2 2 3 3 3 3 3 3 4 4 4 4 4 4 5 6 7 8 9 11 11 10 10 9 8 8 8 7 7 7 7 8 7 7 6 8 11 13 13 12 11 9 7 6 6 5 6 5 4 5 4 4 3 2 2 2 2 2 2 1 1 2
2 2 2 3 3 3 3 3 4 4 4 4 4 5 5 6 7 8 9 10 11 10 9 8 7 7 8 8 7 8 8 8 8 7 6 8 11 13 14 13 12 10 8 7 7 6 6 6 6 5 5 4 4 3 2 2 2 2 2 2 1 1 2
2 2 3 3 3 3 3 3 4 4 4 5 5 6 7 7 8 9 10 10 10 9 7 7 7 7 7 7 8 8 8 8 8 7 8 11 14 14 14 13 11 10 8 7 7 6 6 7 6 5 5 4 4 4 3 2 2 2 2 2 2 1 2
3 3 3 3 3 3 4 4 4 4 5 6 6 7 8 8 9 10 10 9 8 7 7 8 7 7 7 8 8 8 8 8 7 8 11 14 15 14 14 13 11 10 8 7 7 6 7 7 7 6 5 4 4 4 3 2 2 2 2 2 2 2 2
3 3 3 3 4 4 4 4 5 5 6 6 7 8 9 9 9 9 8 7 7 7 7 7 7 7 8 8 8 8 8 8 9 11 15 16 15 14 14 12 11 10 8 7 7 7 7 7 7 7 6 5 4 4 3 3 2 2 2 2 2 2 2
3 3 4 4 4 4 5 5 5 6 7 7 8 9 9 8 8 7 7 7 7 7 7 7 7 8 8 8 9 8 8 10 12 15 17 16 15 15 14 12 11 9 8 8 7 7 7 7 8 8 6 5 4 4 3 3 2 2 2 2 2 2 2
3 4 4 4 4 4 5 6 6 7 7 7 8 8 7 7 7 6 7 7 7 7 7 7 7 8 8 9 9 9 10 14 16 18 17 16 16 15 13 12 11 9 8 8 8 8 8 8 8 8 7 5 4 4 3 3 2 2 2 2 2 2 2
4 4 4 4 5 4 5 6 6 6 7 6 6 6 6 6 7 7 7 7 7 7 7 7 8 9 9 9 9 11 15 18 19 19 18 17 16 15 13 12 10 9 8 8 8 8 8 8 8 8 7 6 5 4 4 3 3 2 2 2 2 2 2
3 3 3 4 4 4 4 5 5 5 5 5 6 6 6 7 7 7 6 7 7 7 8 8 8 9 9 10 12 16 19 20 20 19 19 17 16 15 13 11 10 9 8 8 8 9 9 8 8 8 7 6 6 4 4 4 3 2 2 2 2 2 2

ECMWFFLT1_250_rhum_012.txt.gz
RH
7 6 5 5 5 4 4 4 4 5 5 5 5 5 5 5 5 6 5 6 6 6 6 6 5 5 6 7 7 8 7 7 6 6 7 8 7 7 7 6 6 7 7 8 8 9 10 9 7 6 5 4 4 3 4 3 3 3 2 2 2 2 2
5 5 5 4 4 4 4 3 3 4 4 4 4 4 4 4 5 5 5 5 6 6 6 5 5 5 5 6 7 7 7 7 6 6 7 8 8 7 7 7 6 6 6 8 9 10 10 9 7 7 5 4 5 4 4 4 2 3 3 2 3 2 2
4 4 4 3 3 3 3 3 3 3 3 3 4 4 4 4 4 4 5 5 5 5 5 5 5 5 5 6 7 8 7 7 6 6 8 9 9 8 8 8 6 5 7 8 10 10 10 9 8 7 6 4 4 4 4 4 3 3 3 2 3 2 2
3 3 3 3 3 3 3 3 3 3 3 3 3 3 3 3 4 4 4 5 5 5 5 5 5 5 6 6 7 8 7 6 6 6 9 10 10 9 8 7 5 6 8 8 10 10 9 8 8 7 6 4 4 4 3 3 3 3 3 2 2 2 2
3 3 3 3 3 3 2 3 3 3 3 3 3 3 3 3 3 4 4 4 5 5 4 5 5 6 7 6 7 7 6 6 6 7 9 11 11 10 8 6 6 7 8 8 9 10 8 8 7 6 6 4 4 5 4 3 4 3 3 3 2 2 2
3 3 3 3 3 3 2 2 2 2 2 2 3 3 3 3 3 3 4 4 4 5 4 5 6 6 7 7 6 7 6 6 6 7 10 11 10 9 7 6 7 7 8 9 9 9 8 7 6 6 5 4 4 4 4 4 4 3 3 2 2 2 2
3 3 3 3 3 3 3 2 2 2 2 2 2 3 2 3 3 3 3 4 4 4 5 5 6 6 6 7 6 6 6 6 7 8 10 11 10 8 7 7 8 8 9 9 9 9 8 7 6 5 5 5 4 4 4 4 4 4 3 2 2 2 2
3 3 3 3 3 3 3 3 3 2 3 2 2 3 2 2 3 3 3 4 4 4 5 5 6 6 6 6 5 5 5 6 7 9 10 10 9 8 7 8 8 8 9 9 9 9 8 7 6 5 4 5 4 4 4 4 4 4 3 2 2 2 2
3 3 3 3 3 3 3 3 3 3 3 3 2 2 2 2 3 3 3 4 4 4 5 5 6 6 6 5 5 5 5 6 8 10 10 10 8 7 8 8 8 9 9 9 10 9 9 8 6 5 4 5 4 4 5 5 4 4 3 3 2 2 2
3 3 3 3 2 3 3 2 3 3 2 3 2 2 2 2 3 3 3 4 4 4 5 5 6 6 5 5 5 4 5 7 9 10 10 8 7 7 8 8 8 9 9 9 10 9 9 8 6 5 4 4 5 5 5 4 4 3 3 3 3 2 2
3 3 3 3 2 2 3 2 3 3 2 2 2 2 3 2 3 3 3 4 4 4 5 5 5 6 5 5 5 4 6 8 10 10 8 7 8 7 8 8 9 9 9 10 10 10 9 7 5 5 4 4 5 5 4 4 3 3 3 3 3 2 2
3 3 2 3 2 2 2 2 2 2 2 2 2 2 3 2 3 3 3 4 4 4 5 5 5 5 4 4 4 5 7 9 10 8 7 7 8 7 7 8 9 9 10 10 10 10 9 6 5 5 4 4 5 5 4 3 3 3 3 3 3 2 2
3 3 2 2 2 2 2 2 2 2 2 2 2 3 3 2 3 3 3 4 4 4 5 5 5 5 4 4 5 6 8 10 9 7 7 7 8 8 8 8 9 10 10 10 10 10 8 6 5 5 4 4 5 4 4 3 3 3 3 3 2 2 2
3 3 2 2 2 2 2 2 2 2 2 2 3 2 3 3 3 3 3 3 4 4 4 4 5 4 4 4 5 7 9 9 7 6 7 8 8 8 8 9 10 10 10 10 10 9 7 6 5 5 5 5 5 4 4 4 3 3 3 3 2 2 2
3 2 2 2 2 2 2 2 2 2 2 2 3 3 3 3 3 3 3 3 4 4 4 4 4 4 4 5 6 8 8 7 6 7 7 8 7 8 9 9 10 10 9 10 9 7 7 6 6 5 5 5 5 4 4 4 4 4 3 3 2 2 2
3 2 2 2 2 2 2 2 2 2 2 2 3 3 3 3 3 3 3 3 3 4 4 4 4 4 5 6 7 7 7 6 7 8 7 7 8 8 10 9 9 9 9 9 8 6 6 6 6 6 6 5 5 4 5 5 4 3 3 3 3 2 2
2 2 2 2 2 2 2 2 2 2 3 3 3 3 3 3 3 3 3 3 3 4 4 4 4 5 6 6 6 6 6 7 7 7 7 8 8 9 9 9 8 9 9 8 6 6 6 6 6 6 6 5 5 5 5 6 4 4 3 3 3 2 2
2 2 2 2 2 2 2 2 2 2 3 3 3 3 3 3 3 3 3 3 3 4 4 4 5 6 6 6 6 6 6 7 7 7 8 8 9 10 9 8 8 9 8 7 6 6 6 6 6 7 6 5 5 5 5 5 5 4 3 3 2 2 3
2 2 2 2 2 2 2 2 2 3 3 3 3 3 3 3 3 3 3 3 3 4 4 4 5 6 5 5 5 6 6 7 7 8 8 9 10 10 9 8 8 8 7 6 6 6 6 6 6 7 6 5 6 6 5 5 5 4 4 3 2 2 3
2 2 2 2 2 2 2 2 2 2 3 3 3 3 3 3 3 3 3 3 4 4 4 5 5 5 5 5 6 6 6 7 8 8 9 10 10 9 9 8 8 7 6 6 6 5 6 6 6 6 6 6 6 6 5 5 4 4 4 3 3 2 3
2 2 2 2 2 2 2 2 3 3 3 3 3 3 3 3 3 3 3 3 4 4 4 5 5 5 5 6 6 6 6 7 8 9 10 11 10 9 9 8 7 6 6 6 6 5 6 6 6 6 6 6 6 5 5 4 4 4 4 3 3 3 3
2 2 2 2 2 2 2 2 3 3 3 3 3 3 3 3 3 3 3 3 4 4 5 5 5 5 5 6 6 6 7 8 10 10 10 10 9 9 9 8 7 6 6 6 6 6 6 6 5 6 6 6 5 4 4 4 4 4 4 3 3 3 3
2 2 2 2 2 2 3 3 3 3 3 3 3 3 3 3 3 3 3 4 4 5 5 5 5 5 5 6 6 7 8 9 10 11 10 9 9 9 8 7 7 6 6 6 6 6 6 6 6 7 6 5 5 4 4 4 4 4 4 3 3 3 3
2 2 2 2 2 2 3 3 3 3 3 3 3 3 3 3 3 3 4 4 4 5 5 5 5 5 6 6 7 8 9 10 10 10 10 9 9 9 8 7 7 7 6 6 6 6 6 6 7 7 6 5 5 4 4 4 4 4 4 3 3 3 3
2 2 2 2 3 3 3 3 3 3 3 3 3 4 3 3 4 4 4 4 5 5 5 5 5 6 7 7 9 9 10 10 10 9 10 10 9 8 7 7 7 7 7 7 6 6 7 8 8 7 6 5 5 4 4 4 4 5 4 3 3 3 2
2 2 2 2 3 3 3 3 3 3 3 3 3 4 4 4 4 4 4 5 5 5 5 6 6 7 8 9 9 10 9 9 9 9 10 10 8 8 7 7 7 7 7 7 7 7 9 9 9 7 6 6 5 5 4 4 4 5 4 4 3 2 2
2 2 3 3 3 3 3 3 3 3 3 4 4 4 4 4 4 4 5 5 5 5 6 6 7 8 9 9 9 9 9 9 9 10 9 9 8 7 7 7 7 7 7 7 8 10 11 10 8 7 7 6 5 5 5 4 4 5 4 4 3 3 2
3 3 3 3 3 3 3 3 3 3 4 4 4 4 4 4 4 5 5 5 6 6 6 7 8 9 9 9 9 8 9 9 9 9 8 8 8 8 7 7 7 7 7 8 11 13 12 10 9 8 7 6 5 5 5 5 5 5 4 4 3 2 2
3 3 3 3 3 3 3 3 3 4 4 4 4 4 4 5 5 5 6 6 6 7 7 8 9 9 8 8 8 9 9 9 9 8 8 8 7 7 7 8 8 8 9 12 14 14 12 10 9 8 7 6 5 5 5 5 5 5 4 4 3 3 2
3 3 3 3 3 3 3 3 4 4 4 4 4 4 5 5 5 6 7 7 7 8 8 8 8 8 8 8 9 9 9 9 8 8 8 7 7 8 8 8 9 10 12 15 16 14 12 10 9 8 7 6 6 5 5 5 5 5 5 4 3 3 2
3 3 3 3 3 3 3 4 4 4 4 4 4 5 5 6 6 7 8 8 8 8 8 8 8 8 8 9 9 9 8 8 8 7 8 8 8 8 9 9 10 13 16 18 16 13 12 10 9 8 7 6 6 5 5 5 5 5 5 4 3 3 2
3 3 3 3 3 3 3 4 4 4 4 5 5 6 6 6 7 8 8 8 8 8 8 8 8 9 9 8 8 8 7 8 7 7 8 8 8 9 10 11 14 17 18 18 15 13 12 10 8 7 6 6 6 5 5 5 5 5 5 4 3 3 2
3 3 3 3 3 3 3 4 4 4 5 5 5 6 6 6 7 7 7 8 8 8 8 9 9 8 8 8 8 8 7 8 8 8 8 9 9 11 12 15 18 20 19 17 14 13 11 9 8 7 6 6 6 6 5 5 5 5 5 4 3 3 2
3 3 3 3 3 3 3 4 4 4 5 5 5 6 6 6 6 7 7 7 8 8 9 8 8 8 7 7 7 7 7 8 8 8 9 10 12 14 17 20 21 21 18 16 14 12 10 9 7 7 7 6 7 7 6 6 5 5 5 4 3 3 3
3 3 3 3 3 3 3 4 4 4 5 5 5 6 6 6 6 7 7 8 8 8 8 8 7 7 7 7 7 7 8 8 9 10 11 13 16 19 21 23 22 20 17 15 13 11 9 8 7 7 7 7 7 7 7 7 6 5 5 4 3 3 3
4 4 4 4 4 4 4 4 4 4 5 5 5 6 6 6 7 7 7 8 8 7 7 7 7 7 7 7 8 8 9 9 11 13 15 18 21 23 24 23 21 19 16 14 12 10 9 8 7 7 7 7 7 7 7 7 6 5 5 5 4 3 3